Data supplied by UK-AIR on 19/3/2024
All Data GMT hour ending 
Status: R =Ratified P=Provisional,P*=As supplied
,,Lough Navar,,,,,,,,,,,,,,,,,,,,,,,
Date,time,"PM<sub>10</sub> particulate matter (Hourly measured)",status,unit,"Ozone",status,unit,"PM<sub>2.5</sub> particulate matter (Hourly measured)",status,unit
 
01-01-2023,01:00,11.225,R,ugm-3 (FIDAS),44.37106,R,ugm-3,10.142,R,ugm-3 (Ref.eq)
01-01-2023,02:00,9.550,R,ugm-3 (FIDAS),26.74238,R,ugm-3,8.326,R,ugm-3 (Ref.eq)
01-01-2023,03:00,9.175,R,ugm-3 (FIDAS),20.95485,R,ugm-3,7.264,R,ugm-3 (Ref.eq)
01-01-2023,04:00,9.525,R,ugm-3 (FIDAS),15.36689,R,ugm-3,7.759,R,ugm-3 (Ref.eq)
01-01-2023,05:00,7.725,R,ugm-3 (FIDAS),11.07614,R,ugm-3,5.873,R,ugm-3 (Ref.eq)
01-01-2023,06:00,8.750,R,ugm-3 (FIDAS),10.37764,R,ugm-3,6.132,R,ugm-3 (Ref.eq)
01-01-2023,07:00,8.475,R,ugm-3 (FIDAS),9.37979,R,ugm-3,6.156,R,ugm-3 (Ref.eq)
01-01-2023,08:00,8.525,R,ugm-3 (FIDAS),9.47958,R,ugm-3,5.967,R,ugm-3 (Ref.eq)
01-01-2023,09:00,7.250,R,ugm-3 (FIDAS),8.33205,R,ugm-3,5.590,R,ugm-3 (Ref.eq)
01-01-2023,10:00,8.100,R,ugm-3 (FIDAS),10.87657,R,ugm-3,6.392,R,ugm-3 (Ref.eq)
01-01-2023,11:00,4.100,R,ugm-3 (FIDAS),24.04819,R,ugm-3,3.019,R,ugm-3 (Ref.eq)
01-01-2023,12:00,1.375,R,ugm-3 (FIDAS),39.96389,R,ugm-3,0.802,R,ugm-3 (Ref.eq)
01-01-2023,13:00,1.000,R,ugm-3 (FIDAS),49.24390,R,ugm-3,0.684,R,ugm-3 (Ref.eq)
01-01-2023,14:00,0.900,R,ugm-3 (FIDAS),48.74497,R,ugm-3,0.590,R,ugm-3 (Ref.eq)
01-01-2023,15:00,2.475,R,ugm-3 (FIDAS),48.79487,R,ugm-3,1.910,R,ugm-3 (Ref.eq)
01-01-2023,16:00,3.100,R,ugm-3 (FIDAS),42.65809,R,ugm-3,2.146,R,ugm-3 (Ref.eq)
01-01-2023,17:00,3.825,R,ugm-3 (FIDAS),18.31055,R,ugm-3,2.618,R,ugm-3 (Ref.eq)
01-01-2023,18:00,3.375,R,ugm-3 (FIDAS),5.98710,R,ugm-3,2.288,R,ugm-3 (Ref.eq)
01-01-2023,19:00,8.700,R,ugm-3 (FIDAS),5.58796,R,ugm-3,7.264,R,ugm-3 (Ref.eq)
01-01-2023,20:00,9.150,R,ugm-3 (FIDAS),7.53377,R,ugm-3,7.618,R,ugm-3 (Ref.eq)
01-01-2023,21:00,3.850,R,ugm-3 (FIDAS),7.73334,R,ugm-3,2.594,R,ugm-3 (Ref.eq)
01-01-2023,22:00,6.650,R,ugm-3 (FIDAS),10.77678,R,ugm-3,5.472,R,ugm-3 (Ref.eq)
01-01-2023,23:00,7.125,R,ugm-3 (FIDAS),17.66195,R,ugm-3,5.943,R,ugm-3 (Ref.eq)
01-01-2023,24:00,5.200,R,ugm-3 (FIDAS),21.00474,R,ugm-3,4.222,R,ugm-3 (Ref.eq)
02-01-2023,01:00,2.450,R,ugm-3 (FIDAS),18.42696,R,ugm-3,1.557,R,ugm-3 (Ref.eq)
02-01-2023,02:00,1.650,R,ugm-3 (FIDAS),21.42051,R,ugm-3,0.967,R,ugm-3 (Ref.eq)
02-01-2023,03:00,1.925,R,ugm-3 (FIDAS),18.06109,R,ugm-3,1.132,R,ugm-3 (Ref.eq)
02-01-2023,04:00,2.025,R,ugm-3 (FIDAS),17.51227,R,ugm-3,1.061,R,ugm-3 (Ref.eq)
02-01-2023,05:00,2.050,R,ugm-3 (FIDAS),17.61205,R,ugm-3,1.109,R,ugm-3 (Ref.eq)
02-01-2023,06:00,1.900,R,ugm-3 (FIDAS),16.71399,R,ugm-3,1.274,R,ugm-3 (Ref.eq)
02-01-2023,07:00,2.000,R,ugm-3 (FIDAS),13.82022,R,ugm-3,1.297,R,ugm-3 (Ref.eq)
02-01-2023,08:00,1.925,R,ugm-3 (FIDAS),11.67485,R,ugm-3,1.156,R,ugm-3 (Ref.eq)
02-01-2023,09:00,1.150,R,ugm-3 (FIDAS),16.06539,R,ugm-3,0.684,R,ugm-3 (Ref.eq)
02-01-2023,10:00,1.325,R,ugm-3 (FIDAS),18.16087,R,ugm-3,0.755,R,ugm-3 (Ref.eq)
02-01-2023,11:00,1.475,R,ugm-3 (FIDAS),18.21076,R,ugm-3,0.731,R,ugm-3 (Ref.eq)
02-01-2023,12:00,1.475,R,ugm-3 (FIDAS),26.74238,R,ugm-3,0.708,R,ugm-3 (Ref.eq)
02-01-2023,13:00,1.650,R,ugm-3 (FIDAS),36.57120,R,ugm-3,0.967,R,ugm-3 (Ref.eq)
02-01-2023,14:00,2.175,R,ugm-3 (FIDAS),32.87916,R,ugm-3,1.392,R,ugm-3 (Ref.eq)
02-01-2023,15:00,2.425,R,ugm-3 (FIDAS),38.31744,R,ugm-3,1.816,R,ugm-3 (Ref.eq)
02-01-2023,16:00,4.025,R,ugm-3 (FIDAS),29.83572,R,ugm-3,3.396,R,ugm-3 (Ref.eq)
02-01-2023,17:00,4.825,R,ugm-3 (FIDAS),24.74668,R,ugm-3,4.127,R,ugm-3 (Ref.eq)
02-01-2023,18:00,6.775,R,ugm-3 (FIDAS),24.39743,R,ugm-3,5.778,R,ugm-3 (Ref.eq)
02-01-2023,19:00,7.450,R,ugm-3 (FIDAS),33.67744,R,ugm-3,6.109,R,ugm-3 (Ref.eq)
02-01-2023,20:00,6.400,R,ugm-3 (FIDAS),40.16346,R,ugm-3,5.047,R,ugm-3 (Ref.eq)
02-01-2023,21:00,6.475,R,ugm-3 (FIDAS),51.38928,R,ugm-3,4.599,R,ugm-3 (Ref.eq)
02-01-2023,22:00,5.150,R,ugm-3 (FIDAS),61.41767,R,ugm-3,3.679,R,ugm-3 (Ref.eq)
02-01-2023,23:00,5.225,R,ugm-3 (FIDAS),62.81466,R,ugm-3,3.491,R,ugm-3 (Ref.eq)
02-01-2023,24:00,5.025,R,ugm-3 (FIDAS),61.86670,R,ugm-3,3.609,R,ugm-3 (Ref.eq)
03-01-2023,01:00,4.950,R,ugm-3 (FIDAS),65.12634,R,ugm-3,3.443,R,ugm-3 (Ref.eq)
03-01-2023,02:00,4.300,R,ugm-3 (FIDAS),65.12634,R,ugm-3,2.736,R,ugm-3 (Ref.eq)
03-01-2023,03:00,3.375,R,ugm-3 (FIDAS),67.20520,R,ugm-3,2.123,R,ugm-3 (Ref.eq)
03-01-2023,04:00,1.500,R,ugm-3 (FIDAS),71.14671,R,ugm-3,0.943,R,ugm-3 (Ref.eq)
03-01-2023,05:00,1.025,R,ugm-3 (FIDAS),67.00563,R,ugm-3,0.566,R,ugm-3 (Ref.eq)
03-01-2023,06:00,4.475,R,ugm-3 (FIDAS),60.81896,R,ugm-3,2.123,R,ugm-3 (Ref.eq)
03-01-2023,07:00,8.000,R,ugm-3 (FIDAS),58.12476,R,ugm-3,4.080,R,ugm-3 (Ref.eq)
03-01-2023,08:00,6.775,R,ugm-3 (FIDAS),57.82541,R,ugm-3,4.009,R,ugm-3 (Ref.eq)
03-01-2023,09:00,4.900,R,ugm-3 (FIDAS),56.72777,R,ugm-3,3.208,R,ugm-3 (Ref.eq)
03-01-2023,10:00,2.850,R,ugm-3 (FIDAS),55.87960,R,ugm-3,1.651,R,ugm-3 (Ref.eq)
03-01-2023,11:00,0.975,R,ugm-3 (FIDAS),57.87530,R,ugm-3,0.613,R,ugm-3 (Ref.eq)
03-01-2023,12:00,0.850,R,ugm-3 (FIDAS),55.23100,R,ugm-3,0.542,R,ugm-3 (Ref.eq)
03-01-2023,13:00,1.125,R,ugm-3 (FIDAS),49.49336,R,ugm-3,0.637,R,ugm-3 (Ref.eq)
03-01-2023,14:00,0.850,R,ugm-3 (FIDAS),51.04003,R,ugm-3,0.448,R,ugm-3 (Ref.eq)
03-01-2023,15:00,0.500,R,ugm-3 (FIDAS),55.82971,R,ugm-3,0.283,R,ugm-3 (Ref.eq)
03-01-2023,16:00,2.550,R,ugm-3 (FIDAS),56.27874,R,ugm-3,2.123,R,ugm-3 (Ref.eq)
03-01-2023,17:00,3.850,R,ugm-3 (FIDAS),62.96434,R,ugm-3,2.712,R,ugm-3 (Ref.eq)
03-01-2023,18:00,3.625,R,ugm-3 (FIDAS),60.76907,R,ugm-3,2.382,R,ugm-3 (Ref.eq)
03-01-2023,19:00,3.525,R,ugm-3 (FIDAS),58.22455,R,ugm-3,2.429,R,ugm-3 (Ref.eq)
03-01-2023,20:00,1.750,R,ugm-3 (FIDAS),61.86670,R,ugm-3,1.061,R,ugm-3 (Ref.eq)
03-01-2023,21:00,0.750,R,ugm-3 (FIDAS),67.55445,R,ugm-3,0.448,R,ugm-3 (Ref.eq)
03-01-2023,22:00,3.100,R,ugm-3 (FIDAS),73.84090,R,ugm-3,1.981,R,ugm-3 (Ref.eq)
03-01-2023,23:00,3.975,R,ugm-3 (FIDAS),73.84090,R,ugm-3,2.618,R,ugm-3 (Ref.eq)
03-01-2023,24:00,4.525,R,ugm-3 (FIDAS),70.94714,R,ugm-3,2.901,R,ugm-3 (Ref.eq)
04-01-2023,01:00,8.525,R,ugm-3 (FIDAS),69.64993,R,ugm-3,5.212,R,ugm-3 (Ref.eq)
04-01-2023,02:00,7.775,R,ugm-3 (FIDAS),72.04477,R,ugm-3,5.118,R,ugm-3 (Ref.eq)
04-01-2023,03:00,13.500,R,ugm-3 (FIDAS),68.45251,R,ugm-3,8.774,R,ugm-3 (Ref.eq)
04-01-2023,04:00,8.100,R,ugm-3 (FIDAS),66.05767,R,ugm-3,5.637,R,ugm-3 (Ref.eq)
04-01-2023,05:00,11.325,R,ugm-3 (FIDAS),63.86240,R,ugm-3,7.288,R,ugm-3 (Ref.eq)
04-01-2023,06:00,13.000,R,ugm-3 (FIDAS),62.51530,R,ugm-3,8.278,R,ugm-3 (Ref.eq)
04-01-2023,07:00,11.500,R,ugm-3 (FIDAS),62.06627,R,ugm-3,7.429,R,ugm-3 (Ref.eq)
04-01-2023,08:00,10.875,R,ugm-3 (FIDAS),60.41982,R,ugm-3,7.028,R,ugm-3 (Ref.eq)
04-01-2023,09:00,9.225,R,ugm-3 (FIDAS),59.77122,R,ugm-3,6.085,R,ugm-3 (Ref.eq)
04-01-2023,10:00,10.625,R,ugm-3 (FIDAS),58.62369,R,ugm-3,6.368,R,ugm-3 (Ref.eq)
04-01-2023,11:00,7.975,R,ugm-3 (FIDAS),56.82756,R,ugm-3,5.071,R,ugm-3 (Ref.eq)
04-01-2023,12:00,8.350,R,ugm-3 (FIDAS),56.82756,R,ugm-3,5.142,R,ugm-3 (Ref.eq)
04-01-2023,13:00,7.825,R,ugm-3 (FIDAS),57.72562,R,ugm-3,4.811,R,ugm-3 (Ref.eq)
04-01-2023,14:00,7.450,R,ugm-3 (FIDAS),57.32648,R,ugm-3,4.623,R,ugm-3 (Ref.eq)
04-01-2023,15:00,7.050,R,ugm-3 (FIDAS),56.17896,R,ugm-3,4.528,R,ugm-3 (Ref.eq)
04-01-2023,16:00,6.375,R,ugm-3 (FIDAS),57.57595,R,ugm-3,4.269,R,ugm-3 (Ref.eq)
04-01-2023,17:00,6.225,R,ugm-3 (FIDAS),58.37423,R,ugm-3,3.750,R,ugm-3 (Ref.eq)
04-01-2023,18:00,7.500,R,ugm-3 (FIDAS),61.61724,R,ugm-3,4.387,R,ugm-3 (Ref.eq)
04-01-2023,19:00,6.025,R,ugm-3 (FIDAS),59.77122,R,ugm-3,3.892,R,ugm-3 (Ref.eq)
04-01-2023,20:00,6.950,R,ugm-3 (FIDAS),57.57595,R,ugm-3,3.939,R,ugm-3 (Ref.eq)
04-01-2023,21:00,7.175,R,ugm-3 (FIDAS),61.21810,R,ugm-3,4.175,R,ugm-3 (Ref.eq)
04-01-2023,22:00,7.250,R,ugm-3 (FIDAS),57.12691,R,ugm-3,3.962,R,ugm-3 (Ref.eq)
04-01-2023,23:00,8.750,R,ugm-3 (FIDAS),59.77122,R,ugm-3,5.118,R,ugm-3 (Ref.eq)
04-01-2023,24:00,8.575,R,ugm-3 (FIDAS),52.03788,R,ugm-3,4.104,R,ugm-3 (Ref.eq)
05-01-2023,01:00,7.975,R,ugm-3 (FIDAS),47.69723,R,ugm-3,4.033,R,ugm-3 (Ref.eq)
05-01-2023,02:00,12.500,R,ugm-3 (FIDAS),51.22297,R,ugm-3,6.085,R,ugm-3 (Ref.eq)
05-01-2023,03:00,12.375,R,ugm-3 (FIDAS),48.24605,R,ugm-3,5.660,R,ugm-3 (Ref.eq)
05-01-2023,04:00,12.150,R,ugm-3 (FIDAS),44.60390,R,ugm-3,5.142,R,ugm-3 (Ref.eq)
05-01-2023,05:00,10.300,R,ugm-3 (FIDAS),28.73808,R,ugm-3,4.434,R,ugm-3 (Ref.eq)
05-01-2023,06:00,7.375,R,ugm-3 (FIDAS),33.17851,R,ugm-3,3.538,R,ugm-3 (Ref.eq)
05-01-2023,07:00,4.850,R,ugm-3 (FIDAS),41.21121,R,ugm-3,2.901,R,ugm-3 (Ref.eq)
05-01-2023,08:00,3.350,R,ugm-3 (FIDAS),42.60820,R,ugm-3,1.840,R,ugm-3 (Ref.eq)
05-01-2023,09:00,4.675,R,ugm-3 (FIDAS),56.97724,R,ugm-3,3.019,R,ugm-3 (Ref.eq)
05-01-2023,10:00,6.900,R,ugm-3 (FIDAS),62.81466,R,ugm-3,4.505,R,ugm-3 (Ref.eq)
05-01-2023,11:00,5.850,R,ugm-3 (FIDAS),64.41122,R,ugm-3,3.703,R,ugm-3 (Ref.eq)
05-01-2023,12:00,4.375,R,ugm-3 (FIDAS),65.95789,R,ugm-3,2.665,R,ugm-3 (Ref.eq)
05-01-2023,13:00,2.100,R,ugm-3 (FIDAS),66.00778,R,ugm-3,1.274,R,ugm-3 (Ref.eq)
05-01-2023,14:00,3.775,R,ugm-3 (FIDAS),66.70627,R,ugm-3,2.311,R,ugm-3 (Ref.eq)
05-01-2023,15:00,13.200,R,ugm-3 (FIDAS),70.04907,R,ugm-3,7.594,R,ugm-3 (Ref.eq)
05-01-2023,16:00,8.025,R,ugm-3 (FIDAS),71.99488,R,ugm-3,4.458,R,ugm-3 (Ref.eq)
05-01-2023,17:00,8.125,R,ugm-3 (FIDAS),70.34843,R,ugm-3,4.245,R,ugm-3 (Ref.eq)
05-01-2023,18:00,9.925,R,ugm-3 (FIDAS),68.95144,R,ugm-3,5.778,R,ugm-3 (Ref.eq)
05-01-2023,19:00,11.025,R,ugm-3 (FIDAS),66.15746,R,ugm-3,6.462,R,ugm-3 (Ref.eq)
05-01-2023,20:00,11.650,R,ugm-3 (FIDAS),65.20950,R,ugm-3,7.547,R,ugm-3 (Ref.eq)
05-01-2023,21:00,14.225,R,ugm-3 (FIDAS),63.71272,R,ugm-3,8.208,R,ugm-3 (Ref.eq)
05-01-2023,22:00,13.275,R,ugm-3 (FIDAS),63.61294,R,ugm-3,7.594,R,ugm-3 (Ref.eq)
05-01-2023,23:00,12.625,R,ugm-3 (FIDAS),62.01638,R,ugm-3,7.995,R,ugm-3 (Ref.eq)
05-01-2023,24:00,8.400,R,ugm-3 (FIDAS),64.51100,R,ugm-3,4.646,R,ugm-3 (Ref.eq)
06-01-2023,01:00,6.625,R,ugm-3 (FIDAS),64.06197,R,ugm-3,3.774,R,ugm-3 (Ref.eq)
06-01-2023,02:00,8.075,R,ugm-3 (FIDAS),63.13064,R,ugm-3,4.245,R,ugm-3 (Ref.eq)
06-01-2023,03:00,11.125,R,ugm-3 (FIDAS),61.61724,R,ugm-3,5.542,R,ugm-3 (Ref.eq)
06-01-2023,04:00,10.825,R,ugm-3 (FIDAS),64.06197,R,ugm-3,5.637,R,ugm-3 (Ref.eq)
06-01-2023,05:00,10.875,R,ugm-3 (FIDAS),59.32218,R,ugm-3,5.566,R,ugm-3 (Ref.eq)
06-01-2023,06:00,9.250,R,ugm-3 (FIDAS),61.56735,R,ugm-3,4.929,R,ugm-3 (Ref.eq)
06-01-2023,07:00,8.175,R,ugm-3 (FIDAS),51.88820,R,ugm-3,4.127,R,ugm-3 (Ref.eq)
06-01-2023,08:00,6.575,R,ugm-3 (FIDAS),37.21981,R,ugm-3,3.231,R,ugm-3 (Ref.eq)
06-01-2023,09:00,6.975,R,ugm-3 (FIDAS),32.77937,R,ugm-3,3.396,R,ugm-3 (Ref.eq)
06-01-2023,10:00,6.900,R,ugm-3 (FIDAS),32.23056,R,ugm-3,3.231,R,ugm-3 (Ref.eq)
06-01-2023,11:00,8.750,R,ugm-3 (FIDAS),54.13336,R,ugm-3,3.868,R,ugm-3 (Ref.eq)
06-01-2023,12:00,8.225,R,ugm-3 (FIDAS),59.52175,R,ugm-3,3.325,R,ugm-3 (Ref.eq)
06-01-2023,13:00,5.975,R,ugm-3 (FIDAS),58.97294,R,ugm-3,2.500,R,ugm-3 (Ref.eq)
06-01-2023,14:00,6.550,R,ugm-3 (FIDAS),62.96434,R,ugm-3,2.783,R,ugm-3 (Ref.eq)
06-01-2023,15:00,6.600,R,ugm-3 (FIDAS),62.51530,R,ugm-3,3.231,R,ugm-3 (Ref.eq)
06-01-2023,16:00,7.450,R,ugm-3 (FIDAS),62.11616,R,ugm-3,3.561,R,ugm-3 (Ref.eq)
06-01-2023,17:00,6.325,R,ugm-3 (FIDAS),60.66928,R,ugm-3,3.208,R,ugm-3 (Ref.eq)
06-01-2023,18:00,5.500,R,ugm-3 (FIDAS),57.32648,R,ugm-3,3.066,R,ugm-3 (Ref.eq)
06-01-2023,19:00,5.925,R,ugm-3 (FIDAS),65.30928,R,ugm-3,3.443,R,ugm-3 (Ref.eq)
06-01-2023,20:00,6.525,R,ugm-3 (FIDAS),59.82111,R,ugm-3,3.915,R,ugm-3 (Ref.eq)
06-01-2023,21:00,3.500,R,ugm-3 (FIDAS),61.21810,R,ugm-3,2.264,R,ugm-3 (Ref.eq)
06-01-2023,22:00,4.100,R,ugm-3 (FIDAS),61.46756,R,ugm-3,3.491,R,ugm-3 (Ref.eq)
06-01-2023,23:00,6.500,R,ugm-3 (FIDAS),58.82326,R,ugm-3,5.165,R,ugm-3 (Ref.eq)
06-01-2023,24:00,15.925,R,ugm-3 (FIDAS),51.53895,R,ugm-3,13.491,R,ugm-3 (Ref.eq)
07-01-2023,01:00,8.225,R,ugm-3 (FIDAS),40.71228,R,ugm-3,5.896,R,ugm-3 (Ref.eq)
07-01-2023,02:00,6.650,R,ugm-3 (FIDAS),35.92260,R,ugm-3,3.609,R,ugm-3 (Ref.eq)
07-01-2023,03:00,8.150,R,ugm-3 (FIDAS),38.76647,R,ugm-3,3.986,R,ugm-3 (Ref.eq)
07-01-2023,04:00,12.675,R,ugm-3 (FIDAS),57.62584,R,ugm-3,6.557,R,ugm-3 (Ref.eq)
07-01-2023,05:00,9.475,R,ugm-3 (FIDAS),34.27615,R,ugm-3,4.882,R,ugm-3 (Ref.eq)
07-01-2023,06:00,12.625,R,ugm-3 (FIDAS),42.05938,R,ugm-3,6.226,R,ugm-3 (Ref.eq)
07-01-2023,07:00,10.850,R,ugm-3 (FIDAS),42.05938,R,ugm-3,5.448,R,ugm-3 (Ref.eq)
07-01-2023,08:00,12.100,R,ugm-3 (FIDAS),62.16606,R,ugm-3,5.849,R,ugm-3 (Ref.eq)
07-01-2023,09:00,12.775,R,ugm-3 (FIDAS),65.70842,R,ugm-3,5.873,R,ugm-3 (Ref.eq)
07-01-2023,10:00,12.475,R,ugm-3 (FIDAS),61.51745,R,ugm-3,5.755,R,ugm-3 (Ref.eq)
07-01-2023,11:00,10.925,R,ugm-3 (FIDAS),64.66068,R,ugm-3,5.425,R,ugm-3 (Ref.eq)
07-01-2023,12:00,7.575,R,ugm-3 (FIDAS),68.70197,R,ugm-3,3.892,R,ugm-3 (Ref.eq)
07-01-2023,13:00,4.200,R,ugm-3 (FIDAS),73.79101,R,ugm-3,2.406,R,ugm-3 (Ref.eq)
07-01-2023,14:00,4.900,R,ugm-3 (FIDAS),75.58714,R,ugm-3,2.359,R,ugm-3 (Ref.eq)
07-01-2023,15:00,6.275,R,ugm-3 (FIDAS),74.19015,R,ugm-3,3.231,R,ugm-3 (Ref.eq)
07-01-2023,16:00,6.875,R,ugm-3 (FIDAS),72.99273,R,ugm-3,3.797,R,ugm-3 (Ref.eq)
07-01-2023,17:00,3.775,R,ugm-3 (FIDAS),72.59359,R,ugm-3,2.359,R,ugm-3 (Ref.eq)
07-01-2023,18:00,2.900,R,ugm-3 (FIDAS),69.45036,R,ugm-3,1.745,R,ugm-3 (Ref.eq)
07-01-2023,19:00,5.725,R,ugm-3 (FIDAS),71.04692,R,ugm-3,3.325,R,ugm-3 (Ref.eq)
07-01-2023,20:00,9.775,R,ugm-3 (FIDAS),68.65208,R,ugm-3,6.156,R,ugm-3 (Ref.eq)
07-01-2023,21:00,9.650,R,ugm-3 (FIDAS),69.60004,R,ugm-3,6.439,R,ugm-3 (Ref.eq)
07-01-2023,22:00,10.075,R,ugm-3 (FIDAS),68.55230,R,ugm-3,6.698,R,ugm-3 (Ref.eq)
07-01-2023,23:00,15.075,R,ugm-3 (FIDAS),68.75187,R,ugm-3,9.552,R,ugm-3 (Ref.eq)
07-01-2023,24:00,15.050,R,ugm-3 (FIDAS),71.44606,R,ugm-3,8.915,R,ugm-3 (Ref.eq)
08-01-2023,01:00,14.775,R,ugm-3 (FIDAS),70.51473,R,ugm-3,8.231,R,ugm-3 (Ref.eq)
08-01-2023,02:00,13.500,R,ugm-3 (FIDAS),74.83875,R,ugm-3,7.783,R,ugm-3 (Ref.eq)
08-01-2023,03:00,16.300,R,ugm-3 (FIDAS),74.38972,R,ugm-3,9.198,R,ugm-3 (Ref.eq)
08-01-2023,04:00,15.875,R,ugm-3 (FIDAS),78.58069,R,ugm-3,9.623,R,ugm-3 (Ref.eq)
08-01-2023,05:00,15.600,R,ugm-3 (FIDAS),75.93639,R,ugm-3,9.363,R,ugm-3 (Ref.eq)
08-01-2023,06:00,14.800,R,ugm-3 (FIDAS),74.78886,R,ugm-3,8.561,R,ugm-3 (Ref.eq)
08-01-2023,07:00,13.325,R,ugm-3 (FIDAS),74.73897,R,ugm-3,7.759,R,ugm-3 (Ref.eq)
08-01-2023,08:00,8.750,R,ugm-3 (FIDAS),73.44176,R,ugm-3,5.236,R,ugm-3 (Ref.eq)
08-01-2023,09:00,7.225,R,ugm-3 (FIDAS),71.94499,R,ugm-3,4.269,R,ugm-3 (Ref.eq)
08-01-2023,10:00,7.725,R,ugm-3 (FIDAS),70.74757,R,ugm-3,4.363,R,ugm-3 (Ref.eq)
08-01-2023,11:00,8.275,R,ugm-3 (FIDAS),72.19445,R,ugm-3,4.693,R,ugm-3 (Ref.eq)
08-01-2023,12:00,8.600,R,ugm-3 (FIDAS),69.20090,R,ugm-3,4.764,R,ugm-3 (Ref.eq)
08-01-2023,13:00,6.775,R,ugm-3 (FIDAS),63.36348,R,ugm-3,4.481,R,ugm-3 (Ref.eq)
08-01-2023,14:00,7.050,R,ugm-3 (FIDAS),58.57380,R,ugm-3,4.434,R,ugm-3 (Ref.eq)
08-01-2023,15:00,2.275,R,ugm-3 (FIDAS),61.86670,R,ugm-3,1.627,R,ugm-3 (Ref.eq)
08-01-2023,16:00,3.050,R,ugm-3 (FIDAS),61.46756,R,ugm-3,2.288,R,ugm-3 (Ref.eq)
08-01-2023,17:00,6.575,R,ugm-3 (FIDAS),58.07487,R,ugm-3,4.859,R,ugm-3 (Ref.eq)
08-01-2023,18:00,5.275,R,ugm-3 (FIDAS),52.38713,R,ugm-3,3.538,R,ugm-3 (Ref.eq)
08-01-2023,19:00,7.775,R,ugm-3 (FIDAS),66.80606,R,ugm-3,4.670,R,ugm-3 (Ref.eq)
08-01-2023,20:00,6.750,R,ugm-3 (FIDAS),69.40047,R,ugm-3,3.915,R,ugm-3 (Ref.eq)
08-01-2023,21:00,7.200,R,ugm-3 (FIDAS),71.24649,R,ugm-3,4.033,R,ugm-3 (Ref.eq)
08-01-2023,22:00,9.175,R,ugm-3 (FIDAS),66.00778,R,ugm-3,4.788,R,ugm-3 (Ref.eq)
08-01-2023,23:00,10.550,R,ugm-3 (FIDAS),61.56735,R,ugm-3,5.660,R,ugm-3 (Ref.eq)
08-01-2023,24:00,5.275,R,ugm-3 (FIDAS),59.27229,R,ugm-3,2.925,R,ugm-3 (Ref.eq)
09-01-2023,01:00,2.200,R,ugm-3 (FIDAS),59.33881,R,ugm-3,0.967,R,ugm-3 (Ref.eq)
09-01-2023,02:00,2.050,R,ugm-3 (FIDAS),73.44176,R,ugm-3,0.967,R,ugm-3 (Ref.eq)
09-01-2023,03:00,3.925,R,ugm-3 (FIDAS),71.19660,R,ugm-3,2.217,R,ugm-3 (Ref.eq)
09-01-2023,04:00,5.975,R,ugm-3 (FIDAS),75.08821,R,ugm-3,3.160,R,ugm-3 (Ref.eq)
09-01-2023,05:00,11.200,R,ugm-3 (FIDAS),72.49380,R,ugm-3,5.542,R,ugm-3 (Ref.eq)
09-01-2023,06:00,7.275,R,ugm-3 (FIDAS),74.19015,R,ugm-3,3.774,R,ugm-3 (Ref.eq)
09-01-2023,07:00,6.050,R,ugm-3 (FIDAS),73.69122,R,ugm-3,3.231,R,ugm-3 (Ref.eq)
09-01-2023,08:00,7.100,R,ugm-3 (FIDAS),73.74112,R,ugm-3,3.774,R,ugm-3 (Ref.eq)
09-01-2023,09:00,8.600,R,ugm-3 (FIDAS),72.19445,R,ugm-3,4.599,R,ugm-3 (Ref.eq)
09-01-2023,10:00,10.925,R,ugm-3 (FIDAS),72.19445,R,ugm-3,5.802,R,ugm-3 (Ref.eq)
09-01-2023,11:00,11.600,R,ugm-3 (FIDAS),72.69337,R,ugm-3,6.462,R,ugm-3 (Ref.eq)
09-01-2023,12:00,13.050,R,ugm-3 (FIDAS),72.64348,R,ugm-3,7.736,R,ugm-3 (Ref.eq)
09-01-2023,13:00,12.925,R,ugm-3 (FIDAS),72.44391,R,ugm-3,7.264,R,ugm-3 (Ref.eq)
09-01-2023,14:00,12.925,R,ugm-3 (FIDAS),71.04692,R,ugm-3,7.099,R,ugm-3 (Ref.eq)
09-01-2023,15:00,11.675,R,ugm-3 (FIDAS),71.89509,R,ugm-3,6.038,R,ugm-3 (Ref.eq)
09-01-2023,16:00,10.125,R,ugm-3 (FIDAS),69.20090,R,ugm-3,5.448,R,ugm-3 (Ref.eq)
09-01-2023,17:00,12.425,R,ugm-3 (FIDAS),69.05122,R,ugm-3,6.557,R,ugm-3 (Ref.eq)
09-01-2023,18:00,11.575,R,ugm-3 (FIDAS),66.25724,R,ugm-3,5.943,R,ugm-3 (Ref.eq)
09-01-2023,19:00,11.800,R,ugm-3 (FIDAS),66.25724,R,ugm-3,6.722,R,ugm-3 (Ref.eq)
09-01-2023,20:00,14.525,R,ugm-3 (FIDAS),42.75787,R,ugm-3,8.208,R,ugm-3 (Ref.eq)
09-01-2023,21:00,16.225,R,ugm-3 (FIDAS),48.64519,R,ugm-3,9.104,R,ugm-3 (Ref.eq)
09-01-2023,22:00,11.950,R,ugm-3 (FIDAS),41.11142,R,ugm-3,7.642,R,ugm-3 (Ref.eq)
09-01-2023,23:00,8.550,R,ugm-3 (FIDAS),27.09163,R,ugm-3,5.613,R,ugm-3 (Ref.eq)
09-01-2023,24:00,8.475,R,ugm-3 (FIDAS),20.45593,R,ugm-3,4.811,R,ugm-3 (Ref.eq)
10-01-2023,01:00,14.900,R,ugm-3 (FIDAS),55.48046,R,ugm-3,7.759,R,ugm-3 (Ref.eq)
10-01-2023,02:00,15.850,R,ugm-3 (FIDAS),60.93537,R,ugm-3,7.854,R,ugm-3 (Ref.eq)
10-01-2023,03:00,6.675,R,ugm-3 (FIDAS),68.35273,R,ugm-3,4.175,R,ugm-3 (Ref.eq)
10-01-2023,04:00,1.675,R,ugm-3 (FIDAS),72.74327,R,ugm-3,1.156,R,ugm-3 (Ref.eq)
10-01-2023,05:00,1.950,R,ugm-3 (FIDAS),71.14671,R,ugm-3,1.509,R,ugm-3 (Ref.eq)
10-01-2023,06:00,1.050,R,ugm-3 (FIDAS),70.14886,R,ugm-3,0.708,R,ugm-3 (Ref.eq)
10-01-2023,07:00,0.625,R,ugm-3 (FIDAS),67.50455,R,ugm-3,0.236,R,ugm-3 (Ref.eq)
10-01-2023,08:00,0.325,R,ugm-3 (FIDAS),66.20735,R,ugm-3,0.094,R,ugm-3 (Ref.eq)
10-01-2023,09:00,0.375,R,ugm-3 (FIDAS),60.81896,R,ugm-3,0.094,R,ugm-3 (Ref.eq)
10-01-2023,10:00,0.500,R,ugm-3 (FIDAS),56.37853,R,ugm-3,0.165,R,ugm-3 (Ref.eq)
10-01-2023,11:00,0.750,R,ugm-3 (FIDAS),56.82756,R,ugm-3,0.189,R,ugm-3 (Ref.eq)
10-01-2023,12:00,0.575,R,ugm-3 (FIDAS),57.67573,R,ugm-3,0.142,R,ugm-3 (Ref.eq)
10-01-2023,13:00,0.750,R,ugm-3 (FIDAS),58.22455,R,ugm-3,0.330,R,ugm-3 (Ref.eq)
10-01-2023,14:00,1.175,R,ugm-3 (FIDAS),59.12261,R,ugm-3,0.660,R,ugm-3 (Ref.eq)
10-01-2023,15:00,1.800,R,ugm-3 (FIDAS),69.15101,R,ugm-3,1.179,R,ugm-3 (Ref.eq)
10-01-2023,16:00,5.050,R,ugm-3 (FIDAS),85.11661,R,ugm-3,3.160,R,ugm-3 (Ref.eq)
10-01-2023,17:00,6.375,R,ugm-3 (FIDAS),85.21639,R,ugm-3,3.538,R,ugm-3 (Ref.eq)
10-01-2023,18:00,5.300,R,ugm-3 (FIDAS),76.73467,R,ugm-3,2.783,R,ugm-3 (Ref.eq)
10-01-2023,19:00,7.500,R,ugm-3 (FIDAS),77.68262,R,ugm-3,4.080,R,ugm-3 (Ref.eq)
10-01-2023,20:00,12.725,R,ugm-3 (FIDAS),74.24004,R,ugm-3,6.509,R,ugm-3 (Ref.eq)
10-01-2023,21:00,12.600,R,ugm-3 (FIDAS),67.35488,R,ugm-3,6.557,R,ugm-3 (Ref.eq)
10-01-2023,22:00,11.150,R,ugm-3 (FIDAS),66.40692,R,ugm-3,6.085,R,ugm-3 (Ref.eq)
10-01-2023,23:00,3.575,R,ugm-3 (FIDAS),65.90799,R,ugm-3,2.146,R,ugm-3 (Ref.eq)
10-01-2023,24:00,5.225,R,ugm-3 (FIDAS),61.96649,R,ugm-3,2.995,R,ugm-3 (Ref.eq)
11-01-2023,01:00,8.225,R,ugm-3 (FIDAS),59.33881,R,ugm-3,4.458,R,ugm-3 (Ref.eq)
11-01-2023,02:00,7.775,R,ugm-3 (FIDAS),62.06627,R,ugm-3,4.410,R,ugm-3 (Ref.eq)
11-01-2023,03:00,7.925,R,ugm-3 (FIDAS),65.55875,R,ugm-3,4.434,R,ugm-3 (Ref.eq)
11-01-2023,04:00,9.475,R,ugm-3 (FIDAS),65.75832,R,ugm-3,5.566,R,ugm-3 (Ref.eq)
11-01-2023,05:00,12.450,R,ugm-3 (FIDAS),67.45466,R,ugm-3,6.981,R,ugm-3 (Ref.eq)
11-01-2023,06:00,10.150,R,ugm-3 (FIDAS),66.15746,R,ugm-3,6.156,R,ugm-3 (Ref.eq)
11-01-2023,07:00,4.000,R,ugm-3 (FIDAS),65.35918,R,ugm-3,2.689,R,ugm-3 (Ref.eq)
11-01-2023,08:00,4.925,R,ugm-3 (FIDAS),63.31358,R,ugm-3,2.807,R,ugm-3 (Ref.eq)
11-01-2023,09:00,5.950,R,ugm-3 (FIDAS),64.01208,R,ugm-3,3.396,R,ugm-3 (Ref.eq)
11-01-2023,10:00,7.950,R,ugm-3 (FIDAS),62.56520,R,ugm-3,4.245,R,ugm-3 (Ref.eq)
11-01-2023,11:00,5.250,R,ugm-3 (FIDAS),71.29638,R,ugm-3,3.208,R,ugm-3 (Ref.eq)
11-01-2023,12:00,4.200,R,ugm-3 (FIDAS),81.82370,R,ugm-3,2.524,R,ugm-3 (Ref.eq)
11-01-2023,13:00,10.450,R,ugm-3 (FIDAS),89.35747,R,ugm-3,6.132,R,ugm-3 (Ref.eq)
11-01-2023,14:00,12.300,R,ugm-3 (FIDAS),89.95618,R,ugm-3,7.217,R,ugm-3 (Ref.eq)
11-01-2023,15:00,13.550,R,ugm-3 (FIDAS),92.89984,R,ugm-3,7.783,R,ugm-3 (Ref.eq)
11-01-2023,16:00,12.350,R,ugm-3 (FIDAS),87.31188,R,ugm-3,7.524,R,ugm-3 (Ref.eq)
11-01-2023,17:00,17.250,R,ugm-3 (FIDAS),81.12521,R,ugm-3,11.156,R,ugm-3 (Ref.eq)
11-01-2023,18:00,22.650,R,ugm-3 (FIDAS),78.18155,R,ugm-3,15.142,R,ugm-3 (Ref.eq)
11-01-2023,19:00,30.175,R,ugm-3 (FIDAS),72.39402,R,ugm-3,21.392,R,ugm-3 (Ref.eq)
11-01-2023,20:00,10.950,R,ugm-3 (FIDAS),64.36133,R,ugm-3,7.712,R,ugm-3 (Ref.eq)
11-01-2023,21:00,2.950,R,ugm-3 (FIDAS),62.66498,R,ugm-3,2.075,R,ugm-3 (Ref.eq)
11-01-2023,22:00,1.950,R,ugm-3 (FIDAS),59.32218,R,ugm-3,1.321,R,ugm-3 (Ref.eq)
11-01-2023,23:00,1.325,R,ugm-3 (FIDAS),63.16391,R,ugm-3,1.061,R,ugm-3 (Ref.eq)
11-01-2023,24:00,3.375,R,ugm-3 (FIDAS),35.57335,R,ugm-3,2.594,R,ugm-3 (Ref.eq)
12-01-2023,01:00,1.200,R,ugm-3 (FIDAS),30.73378,R,ugm-3,0.731,R,ugm-3 (Ref.eq)
12-01-2023,02:00,1.250,R,ugm-3 (FIDAS),26.21019,R,ugm-3,0.519,R,ugm-3 (Ref.eq)
12-01-2023,03:00,1.200,R,ugm-3 (FIDAS),29.53636,R,ugm-3,0.448,R,ugm-3 (Ref.eq)
12-01-2023,04:00,2.050,R,ugm-3 (FIDAS),36.17206,R,ugm-3,0.825,R,ugm-3 (Ref.eq)
12-01-2023,05:00,10.550,R,ugm-3 (FIDAS),68.20305,R,ugm-3,6.439,R,ugm-3 (Ref.eq)
12-01-2023,06:00,14.125,R,ugm-3 (FIDAS),67.60434,R,ugm-3,8.892,R,ugm-3 (Ref.eq)
12-01-2023,07:00,12.950,R,ugm-3 (FIDAS),71.94499,R,ugm-3,7.995,R,ugm-3 (Ref.eq)
12-01-2023,08:00,11.700,R,ugm-3 (FIDAS),81.42456,R,ugm-3,6.981,R,ugm-3 (Ref.eq)
12-01-2023,09:00,16.250,R,ugm-3 (FIDAS),75.83660,R,ugm-3,9.293,R,ugm-3 (Ref.eq)
12-01-2023,10:00,17.950,R,ugm-3 (FIDAS),76.48520,R,ugm-3,10.024,R,ugm-3 (Ref.eq)
12-01-2023,11:00,16.300,R,ugm-3 (FIDAS),75.58714,R,ugm-3,9.693,R,ugm-3 (Ref.eq)
12-01-2023,12:00,11.725,R,ugm-3 (FIDAS),74.04047,R,ugm-3,6.887,R,ugm-3 (Ref.eq)
12-01-2023,13:00,10.475,R,ugm-3 (FIDAS),72.84305,R,ugm-3,6.203,R,ugm-3 (Ref.eq)
12-01-2023,14:00,10.150,R,ugm-3 (FIDAS),72.64348,R,ugm-3,6.321,R,ugm-3 (Ref.eq)
12-01-2023,15:00,9.825,R,ugm-3 (FIDAS),73.09251,R,ugm-3,6.132,R,ugm-3 (Ref.eq)
12-01-2023,16:00,11.500,R,ugm-3 (FIDAS),73.84090,R,ugm-3,7.123,R,ugm-3 (Ref.eq)
12-01-2023,17:00,12.025,R,ugm-3 (FIDAS),74.78886,R,ugm-3,7.524,R,ugm-3 (Ref.eq)
12-01-2023,18:00,9.975,R,ugm-3 (FIDAS),75.33768,R,ugm-3,6.392,R,ugm-3 (Ref.eq)
12-01-2023,19:00,6.925,R,ugm-3 (FIDAS),77.33338,R,ugm-3,4.481,R,ugm-3 (Ref.eq)
12-01-2023,20:00,8.775,R,ugm-3 (FIDAS),80.32693,R,ugm-3,5.236,R,ugm-3 (Ref.eq)
12-01-2023,21:00,11.475,R,ugm-3 (FIDAS),77.73252,R,ugm-3,6.816,R,ugm-3 (Ref.eq)
12-01-2023,22:00,13.300,R,ugm-3 (FIDAS),76.08606,R,ugm-3,7.382,R,ugm-3 (Ref.eq)
12-01-2023,23:00,12.725,R,ugm-3 (FIDAS),76.53510,R,ugm-3,7.193,R,ugm-3 (Ref.eq)
12-01-2023,24:00,12.100,R,ugm-3 (FIDAS),75.98628,R,ugm-3,6.910,R,ugm-3 (Ref.eq)
13-01-2023,01:00,11.900,R,ugm-3 (FIDAS),74.30656,R,ugm-3,5.991,R,ugm-3 (Ref.eq)
13-01-2023,02:00,8.525,R,ugm-3 (FIDAS),76.56836,R,ugm-3,4.316,R,ugm-3 (Ref.eq)
13-01-2023,03:00,7.625,R,ugm-3 (FIDAS),75.53725,R,ugm-3,3.797,R,ugm-3 (Ref.eq)
13-01-2023,04:00,5.100,R,ugm-3 (FIDAS),76.68477,R,ugm-3,2.807,R,ugm-3 (Ref.eq)
13-01-2023,05:00,7.525,R,ugm-3 (FIDAS),76.88434,R,ugm-3,4.080,R,ugm-3 (Ref.eq)
13-01-2023,06:00,8.025,R,ugm-3 (FIDAS),76.68477,R,ugm-3,4.292,R,ugm-3 (Ref.eq)
13-01-2023,07:00,5.950,R,ugm-3 (FIDAS),80.42671,R,ugm-3,3.396,R,ugm-3 (Ref.eq)
13-01-2023,08:00,5.700,R,ugm-3 (FIDAS),79.22929,R,ugm-3,3.042,R,ugm-3 (Ref.eq)
13-01-2023,09:00,7.350,R,ugm-3 (FIDAS),78.92994,R,ugm-3,3.443,R,ugm-3 (Ref.eq)
13-01-2023,10:00,13.150,R,ugm-3 (FIDAS),75.68692,R,ugm-3,6.863,R,ugm-3 (Ref.eq)